Location: Seattle
(47.6064°N, 122.3308°W)
Time: 19:38:38
(UTC-07:00)

AO-7 - Pass Details

Date: 29 March 2023
Orbit: 1439 x 1459 km, 101.9° (Epoch: 07 June)

Event Time Altitude Azimuth Distance (km) Brightness Sun altitude
Rises 04:25:37 0° 28° (NNE) 4,567 ? -24.1°
Reaches altitude 10° 04:29:28 10° 44° (NE) 3,580 ? -23.6°
Maximum altitude 04:35:16 20° 89° (E) 2,847 ? -22.7°
Drops below altitude 10° 04:41:01 10° 134° (SE) 3,555 ? -21.9°
Sets 04:44:47 0° 150° (SSE) 4,525 ? -21.4°
